User: anonymous   Login
Location: Newark
(35.2672°N, 80.7344°W)
Time: 09:01:48
(UTC+00:00)
Language:

SR - Orbit

View from above orbital plane
View from above orbital plane
View from above satellite
View from above satellite

Ground track
Ground track

The orbit data is extracted from the following two-line orbital elements,

1 00046U 60007B   21016.83549101 -.00000029  00000-0  17446-4 0  9992
2 00046  66.6889 189.9576 0213918 330.4442  28.4708 14.49358976170030
Epoch (UTC): 16 January 2021 20:03:06
Eccentricity: 0.0213918
inclination: 66.6889°
perigee height: 576 km
apogee height: 880 km
right ascension of ascending node: 189.9576°
argument of perigee: 330.4442°
revolutions per day: 14.49358976
mean anomaly at epoch: 28.4708°
orbit number at epoch: 17003

The dashed part of the orbit path shows where the satellite is in the earth's shadow,  

DLR